Temperature
15 15 15 15 15 15 15 15 15 15 15 16 16 17 17 17 17 17 17 17 16 16 16 16 16 16 16 15 15 15 15 15 15 14 14 14 14 14
14 14 14 15 15 15 15 15 15 15 15 16 16 16 16 16 16 16 16 16 16 16 16 15 15 15 15 15 15 15 15 14 14 14 14 14 14 14
14 14 14 14 14 14 14 15 15 14 14 15 15 15 15 16 16 16 16 16 16 15 15 15 15 15 15 15 15 15 14 14 14 14 14 14 13 13
13 13 13 14 14 14 14 14 14 14 14 14 14 15 15 15 15 15 15 15 15 15 15 14 14 14 14 14 14 14 14 14 14 14 13 13 13 13
12 13 13 13 13 13 13 14 14 14 14 14 14 14 14 14 15 15 15 15 15 15 14 14 14 14 14 14 14 14 14 14 13 13 13 13 13 12
12 12 12 12 13 13 13 13 14 13 14 13 14 14 14 14 14 14 14 14 14 14 14 14 13 13 13 13 13 13 13 13 13 13 13 12 12 12
12 12 12 12 12 12 13 13 13 13 13 13 13 13 13 13 14 14 14 14 13 13 13 13 13 13 13 13 13 13 13 13 13 12 12 12 12 12
11 11 11 12 12 12 12 13 13 13 13 13 13 13 13 13 13 13 13 13 13 13 13 13 13 13 13 12 12 12 12 12 12 12 12 11 11 11
11 11 11 11 11 12 12 12 13 13 13 13 13 13 13 13 13 13 13 13 13 12 12 12 12 12 12 12 12 12 12 12 11 11 11 11 11 11
11 11 11 11 11 11 12 12 12 12 12 13 13 13 13 13 13 13 13 13 13 12 12 12 11 11 11 11 11 11 11 11 11 11 10 10 10 10
11 11 11 11 11 11 12 12 12 12 12 12 12 13 13 13 13 13 13 13 12 12 12 11 11 11 10 10 10 10 10 10 10 10 10 10 9 9
10 11 11 11 11 11 11 12 12 12 12 12 12 12 12 12 13 13 13 13 12 11 11 11 11 10 10 9 10 10 10 10 9 9 9 9 9 9
10 11 11 11 11 11 11 12 12 12 12 12 12 12 12 12 12 12 12 13 13 12 12 11 11 10 10 9 9 9 9 9 9 9 9 9 8 8
10 10 11 11 11 11 11 11 12 12 12 12 12 12 12 12 12 12 12 12 12 12 12 12 11 11 11 10 9 9 9 9 8 8 8 8 8 8
10 10 11 11 11 11 11 11 11 12 12 12 12 11 11 11 11 11 11 11 11 11 11 11 11 11 11 11 11 10 9 8 8 8 8 8 8 8
10 10 10 11 11 11 11 11 11 11 11 12 11 11 11 11 11 11 11 11 11 11 11 11 10 10 10 10 10 10 9 9 8 8 7 7 7 8
10 10 10 11 11 11 11 11 11 11 11 11 11 11 11 11 11 11 11 11 11 11 10 10 10 10 10 10 9 9 9 8 8 7 7 7 7 7
10 10 10 10 11 11 11 11 11 11 11 11 11 11 11 11 11 11 11 11 11 11 10 10 10 10 9 9 9 9 9 8 7 7 7 7 7 7
10 10 10 11 11 11 11 11 11 11 11 11 11 11 11 11 11 10 10 10 10 10 10 10 10 10 9 9 9 9 8 8 7 7 7 7 7 7
10 10 10 11 11 11 11 11 11 11 11 11 11 11 11 10 10 10 10 10 10 10 10 10 9 9 9 9 9 9 8 8 7 7 7 7 7 7
10 11 11 11 11 11 11 11 11 11 11 11 11 11 10 10 10 10 10 10 10 10 10 9 9 9 8 8 8 8 8 8 7 7 7 7 7 7
10 11 11 11 11 11 11 11 11 11 11 11 11 10 10 10 10 10 10 10 10 9 9 9 8 8 8 8 8 8 8 8 7 7 7 7 7 7
10 11 11 11 11 11 11 11 11 11 11 11 10 10 10 10 10 10 10 9 9 9 9 8 8 8 8 8 8 7 7 7 7 7 7 7 7 7
Wind_Speed
5 6 6 6 7 7 6 6 7 6 7 6 5 5 7 10 12 13 13 16 18 17 17 16 16 15 14 13 11 10 10 10 10 9 8 6 4 3
2 4 4 4 5 6 7 6 7 7 6 5 5 3 5 7 11 12 13 14 16 16 16 16 16 15 14 13 12 11 10 10 9 9 8 6 5 4
2 2 3 3 4 4 5 6 6 6 6 3 3 3 5 6 6 9 10 10 12 15 15 15 14 14 13 13 12 12 11 10 10 9 8 7 6 6
3 2 2 2 3 4 5 6 6 6 5 5 4 4 4 6 7 7 7 9 10 14 15 14 14 14 13 13 12 12 11 11 10 10 9 8 8 8
3 3 3 2 3 3 4 5 5 6 5 5 4 3 3 5 6 6 7 5 8 12 15 15 15 14 13 13 13 13 12 12 11 11 10 10 10 11
4 3 2 2 3 3 4 5 5 6 6 6 5 4 4 5 7 8 7 5 6 8 10 13 14 14 14 14 14 14 14 14 13 13 14 14 14 14
4 4 3 3 3 2 2 4 5 5 6 6 5 5 6 7 8 6 8 8 6 5 8 8 10 9 10 13 14 15 15 16 16 16 17 18 17 17
5 5 4 4 4 3 2 3 5 6 6 6 5 6 7 7 7 9 10 8 5 5 7 6 6 7 8 10 14 17 17 17 18 18 19 19 19 17
5 4 4 4 5 3 3 1 1 5 6 5 6 6 7 9 10 11 10 8 6 7 7 5 5 6 7 11 16 17 18 18 19 19 19 19 18 17
4 4 4 4 4 3 2 2 2 0 2 4 5 5 6 8 9 9 10 10 9 6 4 4 4 5 6 10 15 17 18 18 19 19 19 18 18 16
5 4 3 3 5 3 2 2 2 2 1 3 5 6 9 12 12 11 11 12 8 4 2 4 4 4 4 4 11 16 17 18 18 18 18 18 17 15
5 5 5 4 4 4 2 2 2 1 2 4 5 6 8 11 14 12 12 12 9 4 3 4 6 4 4 2 4 9 12 13 15 15 16 16 15 12
4 4 4 5 5 4 3 2 2 2 3 4 5 5 6 7 7 6 7 10 9 4 7 5 5 3 4 4 2 3 5 6 7 8 12 13 13 11
3 3 4 5 5 5 4 4 5 5 4 4 5 5 5 5 6 7 9 8 6 7 12 8 5 6 5 5 4 3 3 4 5 5 7 9 9 8
3 4 4 5 6 5 6 6 5 4 4 5 5 4 4 5 7 8 10 11 13 12 9 7 7 8 5 5 6 5 3 2 4 4 5 5 5 5
3 3 4 6 5 4 5 5 4 4 4 5 4 4 4 5 7 7 8 9 8 6 8 9 10 8 4 4 6 6 5 6 5 4 4 3 4 6
2 2 2 2 3 3 4 4 4 4 4 4 5 6 6 7 6 6 6 5 5 5 5 5 9 10 6 5 5 6 5 4 5 6 4 3 4 7
1 1 1 1 2 2 3 3 4 4 4 5 5 6 6 7 6 5 5 6 7 6 5 4 5 4 4 5 3 6 6 4 4 5 4 5 4 6
1 0 0 0 0 1 2 2 2 2 3 5 5 5 6 6 6 6 6 6 6 5 4 4 3 4 4 3 0 2 6 5 5 5 5 5 5 4
1 1 1 1 1 1 1 2 2 3 3 4 5 4 5 5 5 5 5 6 6 4 4 2 2 3 4 5 4 2 4 5 6 6 4 3 3 5
2 2 2 2 2 2 2 2 3 3 4 4 4 5 5 5 5 5 5 8 5 4 5 4 2 4 4 5 3 1 2 4 6 5 5 3 2 2
4 4 3 3 3 3 3 3 4 4 5 4 4 5 5 5 6 6 6 6 4 4 4 3 3 3 2 3 3 3 2 1 3 6 9 8 5 4
6 5 5 4 4 4 4 5 5 4 5 5 5 5 5 4 4 5 5 5 5 5 4 4 3 2 2 2 3 2 3 2 2 2 4 12 16 15
Wind_Direction
232 221 215 211 207 202 195 187 185 202 219 212 205 202 200 197 198 196 196 200 199 197 195 191 187 185 182 182 184 181 177 176 175 177 179 179 187 180
239 218 214 209 209 204 203 200 194 197 213 202 199 184 189 199 194 193 195 192 192 188 187 185 183 181 180 177 175 173 171 169 168 170 169 168 162 149
327 247 224 201 206 207 203 198 198 194 209 197 175 168 178 184 173 181 185 180 180 180 179 176 174 172 172 171 168 166 166 165 164 162 160 153 142 128
341 318 270 217 215 212 210 203 202 197 196 196 180 172 180 179 166 166 168 171 167 169 166 164 164 164 164 163 159 157 157 157 155 151 147 142 133 122
338 332 326 305 250 225 215 205 198 198 191 184 181 168 157 155 151 150 146 137 147 154 154 152 153 155 156 158 155 152 149 146 144 141 137 130 123 116
342 337 323 300 274 249 223 210 197 196 190 182 176 167 154 151 154 150 144 133 130 130 129 134 139 142 148 150 148 145 142 138 134 129 125 121 117 113
347 348 330 317 294 259 230 206 193 193 183 183 176 171 164 162 165 153 145 132 118 125 123 121 122 120 127 135 140 140 138 135 131 126 122 118 116 112
344 341 337 348 353 345 294 222 198 187 183 180 180 179 171 162 155 151 145 142 136 136 124 115 114 116 116 126 137 137 136 133 130 127 123 120 117 114
341 338 347 359 2 358 7 13 207 195 191 179 180 181 172 166 160 159 156 145 132 141 123 108 105 106 103 121 132 134 134 132 129 128 126 123 121 118
343 338 341 340 343 356 25 47 44 144 192 184 183 179 169 164 162 153 140 121 109 105 101 109 104 97 93 102 120 125 127 129 130 130 129 127 126 124
348 348 346 339 343 7 47 68 65 48 86 151 158 160 160 155 148 141 142 142 136 116 84 109 120 99 78 74 97 113 121 126 131 134 134 133 132 128
347 351 357 357 3 24 46 65 76 65 105 115 124 137 147 154 155 158 156 152 142 131 142 119 135 128 110 72 80 102 110 118 129 138 142 142 142 134
346 344 344 2 25 37 46 56 78 102 113 120 125 128 135 145 147 142 146 153 148 136 155 133 136 127 125 132 118 100 112 120 122 132 149 156 159 157
332 327 334 10 36 44 51 68 75 87 103 109 115 119 124 129 129 122 108 95 93 129 149 139 137 149 135 134 144 134 106 124 133 137 145 156 166 177
323 331 5 40 44 44 58 65 63 74 92 103 104 97 95 111 117 110 98 93 89 99 115 124 131 140 130 139 147 151 151 160 160 152 156 161 168 168
347 357 30 54 54 47 52 52 52 67 89 97 97 91 94 105 113 115 117 114 104 84 63 92 129 131 123 124 144 155 159 165 170 171 160 169 189 200
339 10 20 35 46 47 53 56 57 64 78 80 93 98 99 101 103 105 114 107 112 122 104 74 78 82 85 127 139 154 154 158 170 167 166 191 227 224
74 43 20 40 67 70 72 64 59 69 78 91 94 99 105 108 104 98 100 113 122 125 126 131 127 105 87 55 72 157 160 159 163 169 172 194 234 238
91 109 228 253 105 99 88 84 86 86 93 101 104 105 107 107 108 109 109 111 117 122 127 139 141 131 135 162 9 149 164 159 155 170 192 201 223 239
140 196 222 228 207 167 146 127 121 118 112 114 114 114 115 115 116 122 125 129 131 128 132 137 149 151 160 168 169 170 173 161 170 182 190 203 249 274
216 214 216 214 208 193 177 162 152 147 141 135 134 136 134 126 127 130 131 135 129 138 156 168 148 125 108 102 108 163 215 206 190 180 173 175 217 254
219 217 214 211 203 193 181 169 159 156 153 149 150 151 150 146 149 152 154 155 156 155 152 137 131 122 123 148 172 183 186 197 216 217 205 196 180 206
214 214 212 208 203 191 181 179 178 175 172 166 161 161 158 156 156 158 162 161 152 150 144 147 149 139 138 155 166 177 189 188 188 208 240 235 237 246
Height
1481 1482 1484 1486 1488 1491 1494 1497 1500 1501 1503 1506 1509 1513 1517 1520 1524 1528 1532 1535 1539 1541 1544 1546 1549 1551 1553 1555 1557 1559 1561 1562 1564 1565 1566 1567 1567 1568
1477 1478 1479 1481 1483 1485 1487 1490 1493 1496 1497 1500 1504 1508 1511 1514 1518 1522 1527 1530 1534 1537 1540 1543 1546 1548 1551 1553 1555 1557 1559 1560 1562 1563 1564 1565 1565 1565
1473 1474 1475 1476 1478 1479 1481 1484 1486 1489 1492 1495 1498 1501 1505 1509 1512 1517 1521 1525 1529 1532 1536 1539 1542 1545 1548 1550 1553 1555 1556 1558 1559 1561 1562 1562 1563 1563
1471 1472 1472 1472 1474 1475 1477 1478 1481 1483 1487 1489 1492 1495 1499 1503 1507 1511 1515 1520 1524 1527 1531 1535 1538 1542 1545 1547 1550 1552 1554 1556 1557 1558 1559 1560 1560 1560
1471 1470 1469 1470 1470 1471 1472 1474 1476 1478 1481 1484 1486 1490 1493 1497 1501 1506 1510 1514 1519 1522 1526 1531 1535 1538 1541 1544 1547 1549 1551 1553 1554 1556 1556 1557 1558 1558
1470 1469 1468 1468 1468 1468 1469 1470 1471 1474 1476 1479 1482 1484 1488 1492 1497 1500 1505 1510 1514 1518 1522 1527 1531 1534 1538 1541 1544 1546 1548 1550 1552 1553 1554 1555 1555 1555
1470 1469 1468 1467 1466 1466 1466 1467 1468 1470 1471 1474 1477 1480 1483 1487 1491 1496 1501 1506 1511 1514 1519 1523 1527 1531 1535 1538 1541 1543 1545 1547 1549 1550 1551 1552 1553 1553
1469 1468 1467 1466 1465 1464 1464 1465 1466 1467 1468 1470 1473 1475 1478 1483 1488 1492 1497 1502 1507 1512 1516 1521 1524 1528 1532 1535 1538 1540 1543 1545 1546 1548 1549 1550 1551 1551
1469 1468 1467 1466 1465 1464 1463 1463 1463 1464 1466 1468 1470 1473 1476 1479 1484 1489 1493 1498 1503 1508 1514 1518 1522 1526 1529 1532 1535 1538 1540 1542 1544 1545 1547 1548 1549 1549
1468 1467 1466 1465 1465 1463 1462 1462 1462 1463 1464 1466 1468 1472 1475 1478 1482 1486 1490 1496 1502 1507 1512 1516 1520 1524 1527 1530 1533 1536 1538 1540 1542 1544 1545 1546 1547 1548
1468 1467 1466 1466 1465 1464 1463 1463 1463 1463 1464 1466 1467 1470 1473 1476 1480 1484 1488 1493 1498 1504 1509 1513 1518 1522 1526 1529 1531 1534 1536 1538 1540 1542 1544 1545 1546 1546
1468 1467 1467 1466 1465 1464 1464 1463 1463 1463 1464 1465 1467 1469 1472 1475 1478 1482 1487 1491 1495 1502 1506 1511 1515 1519 1524 1528 1530 1532 1535 1537 1539 1540 1542 1543 1544 1545
1468 1468 1467 1467 1466 1465 1465 1464 1464 1464 1464 1465 1466 1469 1471 1474 1477 1481 1486 1490 1494 1498 1503 1508 1512 1516 1520 1524 1528 1530 1533 1535 1537 1539 1540 1541 1542 1543
1469 1468 1468 1468 1467 1467 1466 1465 1464 1464 1465 1466 1467 1469 1471 1474 1477 1481 1485 1490 1494 1498 1502 1506 1510 1514 1518 1521 1524 1528 1530 1533 1535 1537 1538 1539 1540 1541
1469 1469 1469 1469 1469 1468 1467 1467 1466 1466 1466 1467 1468 1470 1472 1474 1478 1481 1485 1489 1494 1497 1501 1506 1510 1514 1517 1520 1522 1525 1528 1530 1532 1534 1536 1537 1538 1538
1470 1470 1470 1470 1470 1470 1469 1469 1468 1468 1469 1469 1470 1472 1474 1476 1479 1482 1486 1490 1494 1497 1502 1506 1509 1513 1517 1519 1521 1523 1526 1528 1530 1532 1533 1534 1535 1536
1471 1471 1471 1471 1471 1471 1471 1471 1471 1471 1471 1472 1473 1474 1476 1478 1481 1484 1487 1491 1494 1497 1501 1505 1508 1512 1516 1518 1520 1522 1524 1526 1528 1529 1531 1532 1533 1534
1472 1472 1472 1473 1473 1473 1473 1474 1474 1474 1475 1475 1476 1477 1479 1481 1483 1486 1489 1492 1495 1498 1501 1504 1507 1511 1514 1517 1519 1520 1522 1523 1525 1527 1528 1529 1530 1531
1473 1473 1473 1474 1474 1475 1475 1476 1477 1477 1478 1479 1480 1481 1482 1484 1486 1488 1491 1493 1496 1499 1502 1504 1507 1510 1512 1514 1516 1518 1520 1521 1522 1523 1525 1526 1527 1528
1472 1473 1473 1474 1475 1476 1476 1477 1478 1479 1480 1481 1482 1484 1485 1487 1488 1490 1493 1495 1497 1499 1501 1504 1506 1508 1511 1513 1514 1515 1517 1518 1519 1520 1522 1522 1523 1524
1471 1471 1472 1473 1474 1475 1477 1478 1479 1480 1482 1483 1484 1486 1487 1489 1490 1492 1493 1495 1497 1499 1500 1503 1505 1507 1508 1510 1512 1513 1514 1515 1516 1517 1518 1519 1519 1520
1468 1469 1470 1471 1473 1474 1475 1477 1478 1480 1481 1483 1485 1486 1487 1489 1490 1492 1493 1495 1496 1498 1499 1501 1503 1504 1506 1507 1509 1510 1511 1512 1513 1514 1515 1515 1516 1516
1465 1466 1467 1469 1470 1472 1473 1475 1477 1478 1480 1482 1483 1485 1487 1488 1489 1491 1492 1493 1495 1496 1497 1499 1500 1502 1503 1504 1506 1507 1508 1509 1509 1510 1511 1512 1512 1512